Location: Rehoboth Beach
(38.7438°N, 75.1341°W)
Time: 01:21:06
(UTC-04:00)

Cosmos 1452 Rocket - Visible Passes

Search period start: 26 September 2016 00:00
Search period end: 06 October 2016 00:00
Orbit: 768 x 775 km, 74.1° (Epoch: 25 September)

Date Brightness Start Highest point End Pass type
(mag) Time Alt. Az. Time Alt. Az. Time Alt. Az.
26 Sep 4.5 19:17:04 10° N 19:21:26 26° ENE 19:25:48 10° ESE visible
26 Sep 4.9 20:58:51 10° NW 21:03:37 36° W 21:07:30 15° SSW visible
27 Sep 3.9 20:22:32 10° NNW 20:27:44 63° WSW 20:32:53 10° S visible
28 Sep 3.4 19:46:28 10° NNW 19:51:45 77° ENE 19:56:59 10° SSE visible
28 Sep 6.4 21:31:39 10° WNW 21:33:06 11° W 21:34:33 10° WSW visible
29 Sep 3.8 19:10:37 10° N 19:15:41 45° ENE 19:20:40 10° SE visible
29 Sep 6.0 20:53:40 10° NW 20:57:24 20° W 21:01:08 10° SW visible
30 Sep 5.2 20:16:55 10° NW 20:21:37 34° W 20:26:17 10° SSW visible
01 Oct 4.1 19:40:34 10° NNW 19:45:44 59° WSW 19:50:52 10° S visible
02 Oct 3.5 19:04:29 10° NNW 19:09:46 81° ENE 19:15:00 10° SSE visible
02 Oct 6.8 20:50:21 10° W 20:51:04 10° W 20:51:48 10° W visible
03 Oct 6.3 20:11:47 10° NW 20:15:23 19° W 20:18:57 10° SW visible
04 Oct 5.5 19:34:58 10° NW 19:39:36 32° W 19:44:12 10° SSW visible
05 Oct 4.4 18:58:35 10° NNW 19:03:44 56° WSW 19:08:50 10° S visible
